When you browse on this site, cookies collect data to enhance your experience and personalize the content and advertising you see.
Visit our Privacy Policy to learn more. By continuing to use the site, you agree to this use of cookies and data.
  • In Switzerland
  • List of Countries
  • For 7 days
  • Water Temperature
  • Satellite Maps
  • Weather Map
  • Weather Widgets
  • user-avatar
    Login

    Hourly Weather Francistown

    Today, 16 January, Wednesday

    Time Temperature Precipitation Wind Pressure Humidity
    00:00 +29°C° 0 mm 2 mps 675 mmHg 52%
    01:00 +28°C° 0 mm 2 mps 675 mmHg 55%
    02:00 +28°C° 0 mm 2 mps 675 mmHg 60%
    03:00 +27°C° 0 mm 3 mps 675 mmHg 63%
    04:00 +27°C° 0 mm 3 mps 675 mmHg 65%
    05:00 +26°C° 0 mm 4 mps 675 mmHg 68%
    06:00 +27°C° 0.2 mm 4 mps 676 mmHg 67%
    07:00 +27°C° 0.2 mm 4 mps 676 mmHg 65%
    08:00 +28°C° 0 mm 4 mps 677 mmHg 63%
    09:00 +29°C° 0 mm 4 mps 677 mmHg 56%
    10:00 +32°C° 0 mm 4 mps 677 mmHg 49%
    11:00 +34°C° 0 mm 3 mps 677 mmHg 42%
    12:00 +34°C° 0 mm 3 mps 676 mmHg 41%
    13:00 +34°C° 0 mm 3 mps 676 mmHg 39%
    14:00 +35°C° 0 mm 3 mps 676 mmHg 38%
    15:00 +35°C° 0 mm 2 mps 675 mmHg 38%
    16:00 +35°C° 0 mm 2 mps 675 mmHg 38%
    17:00 +35°C° 0 mm 2 mps 675 mmHg 39%
    18:00 +34°C° 0 mm 2 mps 675 mmHg 42%
    19:00 +31°C° 0 mm 2 mps 675 mmHg 45%
    20:00 +30°C° 0 mm 3 mps 675 mmHg 48%
    21:00 +29°C° 0.1 mm 3 mps 675 mmHg 53%
    22:00 +28°C° 0.1 mm 3 mps 675 mmHg 58%
    23:00 +27°C° 0.1 mm 3 mps 675 mmHg 63%

    Tomorrow, 17 January, Thursday

    Time Temperature Precipitation Wind Pressure Humidity
    00:00 +27°C° 0 mm 3 mps 675 mmHg 66%
    01:00 +26°C° 0 mm 4 mps 675 mmHg 68%
    02:00 +26°C° 0 mm 4 mps 675 mmHg 71%
    03:00 +25°C° 0.4 mm 4 mps 675 mmHg 74%
    04:00 +23°C° 0.4 mm 5 mps 675 mmHg 78%
    05:00 +23°C° 0.4 mm 5 mps 675 mmHg 82%
    06:00 +23°C° 0 mm 5 mps 675 mmHg 78%
    07:00 +25°C° 0 mm 5 mps 676 mmHg 74%
    08:00 +26°C° 0 mm 5 mps 676 mmHg 70%
    09:00 +27°C° 0 mm 4 mps 677 mmHg 62%
    10:00 +29°C° 0 mm 4 mps 677 mmHg 55%
    11:00 +31°C° 0 mm 3 mps 677 mmHg 48%
    12:00 +31°C° 0 mm 3 mps 676 mmHg 46%
    13:00 +33°C° 0 mm 3 mps 676 mmHg 45%
    14:00 +33°C° 0 mm 3 mps 675 mmHg 43%
    15:00 +33°C° 0 mm 3 mps 675 mmHg 41%
    16:00 +34°C° 0 mm 3 mps 674 mmHg 38%
    17:00 +34°C° 0 mm 2 mps 674 mmHg 36%
    18:00 +33°C° 0 mm 3 mps 674 mmHg 41%
    19:00 +30°C° 0 mm 3 mps 674 mmHg 45%
    20:00 +29°C° 0 mm 4 mps 674 mmHg 49%
    21:00 +28°C° 0 mm 3 mps 674 mmHg 53%
    22:00 +27°C° 0 mm 3 mps 674 mmHg 56%
    23:00 +26°C° 0 mm 3 mps 675 mmHg 60%

    Day after tomorrow, 18 January, Friday

    Time Temperature Precipitation Wind Pressure Humidity
    00:00 +26°C° 0 mm 3 mps 674 mmHg 61%
    01:00 +25°C° 0 mm 2 mps 674 mmHg 63%
    02:00 +25°C° 0 mm 1 mps 674 mmHg 65%
    03:00 +25°C° 0 mm 2 mps 674 mmHg 66%
    04:00 +24°C° 0 mm 2 mps 673 mmHg 68%
    05:00 +24°C° 0 mm 2 mps 673 mmHg 70%
    06:00 +25°C° 0 mm 2 mps 674 mmHg 66%
    07:00 +26°C° 0 mm 3 mps 674 mmHg 63%
    08:00 +27°C° 0 mm 3 mps 675 mmHg 60%
    09:00 +29°C° 0 mm 3 mps 675 mmHg 54%
    10:00 +31°C° 0 mm 3 mps 676 mmHg 47%
    11:00 +34°C° 0 mm 2 mps 676 mmHg 41%
    12:00 +34°C° 0 mm 3 mps 675 mmHg 39%
    13:00 +35°C° 0 mm 3 mps 675 mmHg 37%
    14:00 +35°C° 0 mm 4 mps 674 mmHg 36%
    15:00 +36°C° 0 mm 3 mps 673 mmHg 34%
    16:00 +36°C° 0 mm 3 mps 673 mmHg 31%
    17:00 +37°C° 0 mm 3 mps 673 mmHg 29%
    18:00 +36°C° 0 mm 3 mps 673 mmHg 32%
    19:00 +34°C° 0 mm 3 mps 673 mmHg 35%
    20:00 +32°C° 0 mm 2 mps 673 mmHg 38%
    21:00 +31°C° 0 mm 3 mps 673 mmHg 42%
    22:00 +30°C° 0 mm 3 mps 673 mmHg 46%
    23:00 +29°C° 0 mm 3 mps 673 mmHg 49%

    19 January, Saturday

    Time Temperature Precipitation Wind Pressure Humidity
    00:00 +28°C° 0 mm 3 mps 673 mmHg 51%
    01:00 +28°C° 0 mm 2 mps 673 mmHg 52%
    02:00 +28°C° 0 mm 1 mps 672 mmHg 53%
    03:00 +27°C° 0.4 mm 2 mps 672 mmHg 58%
    04:00 +26°C° 0.4 mm 2 mps 672 mmHg 63%
    05:00 +25°C° 0.4 mm 2 mps 672 mmHg 68%
    06:00 +26°C° 0.3 mm 2 mps 673 mmHg 64%
    07:00 +27°C° 0.3 mm 1 mps 674 mmHg 61%
    08:00 +28°C° 0.3 mm 1 mps 675 mmHg 57%
    09:00 +31°C° 0 mm 1 mps 675 mmHg 50%
    10:00 +31°C° 0 mm 0 mps 675 mmHg 43%
    11:00 +33°C° 0 mm 0 mps 675 mmHg 35%
    12:00 +36°C° 0 mm 1 mps 675 mmHg 33%
    13:00 +37°C° 0 mm 2 mps 674 mmHg 31%
    14:00 +37°C° 0 mm 3 mps 673 mmHg 29%
    15:00 +37°C° 0 mm 3 mps 673 mmHg 30%
    16:00 +37°C° 0 mm 3 mps 673 mmHg 30%
    17:00 +37°C° 0 mm 3 mps 673 mmHg 30%
    18:00 +36°C° 0 mm 4 mps 673 mmHg 33%
    19:00 +35°C° 0 mm 5 mps 674 mmHg 36%
    20:00 +34°C° 0 mm 5 mps 674 mmHg 39%
    21:00 +30°C° 0.5 mm 7 mps 674 mmHg 49%
    22:00 +28°C° 0.5 mm 9 mps 675 mmHg 59%
    23:00 +26°C° 0.5 mm 11 mps 676 mmHg 69%

    20 January, Sunday

    Time Temperature Precipitation Wind Pressure Humidity
    00:00 +24°C° 0 mm 10 mps 675 mmHg 70%
    01:00 +23°C° 0 mm 8 mps 675 mmHg 71%
    02:00 +23°C° 0 mm 7 mps 675 mmHg 72%
    03:00 +22°C° 0 mm 7 mps 675 mmHg 72%
    04:00 +22°C° 0 mm 8 mps 676 mmHg 73%
    05:00 +22°C° 0 mm 8 mps 676 mmHg 73%
    06:00 +22°C° 0 mm 8 mps 677 mmHg 71%
    07:00 +22°C° 0 mm 8 mps 677 mmHg 69%
    08:00 +22°C° 0 mm 9 mps 678 mmHg 68%
    09:00 +23°C° 0 mm 8 mps 678 mmHg 65%
    10:00 +23°C° 0 mm 8 mps 678 mmHg 62%
    11:00 +24°C° 0 mm 8 mps 679 mmHg 58%
    12:00 +24°C° 0 mm 8 mps 678 mmHg 58%
    13:00 +24°C° 0 mm 8 mps 678 mmHg 58%
    14:00 +24°C° 0 mm 8 mps 677 mmHg 58%
    15:00 +24°C° 0 mm 7 mps 677 mmHg 58%
    16:00 +24°C° 0 mm 7 mps 677 mmHg 58%
    17:00 +24°C° 0 mm 7 mps 677 mmHg 58%
    18:00 +23°C° 0 mm 7 mps 678 mmHg 60%
    19:00 +22°C° 0 mm 7 mps 678 mmHg 62%
    20:00 +21°C° 0 mm 7 mps 679 mmHg 64%
    21:00 +20°C° 0 mm 7 mps 679 mmHg 66%
    22:00 +20°C° 0 mm 7 mps 679 mmHg 68%
    23:00 +18°C° 0 mm 7 mps 679 mmHg 69%

    21 January, Monday

    Time Temperature Precipitation Wind Pressure Humidity
    00:00 +17°C° 0 mm 7 mps 679 mmHg 70%
    01:00 +17°C° 0 mm 7 mps 679 mmHg 71%
    02:00 +17°C° 0 mm 6 mps 678 mmHg 71%
    03:00 +16°C° 0 mm 6 mps 678 mmHg 71%
    04:00 +16°C° 0 mm 6 mps 678 mmHg 71%
    05:00 +16°C° 0 mm 6 mps 678 mmHg 71%
    06:00 +16°C° 0 mm 7 mps 679 mmHg 67%
    07:00 +17°C° 0 mm 7 mps 679 mmHg 63%
    08:00 +17°C° 0 mm 7 mps 680 mmHg 59%
    09:00 +20°C° 0 mm 7 mps 680 mmHg 54%
    10:00 +22°C° 0 mm 7 mps 680 mmHg 49%
    11:00 +24°C° 0 mm 7 mps 680 mmHg 44%
    12:00 +27°C° 0 mm 6 mps 679 mmHg 42%
    13:00 +28°C° 0 mm 6 mps 679 mmHg 39%
    14:00 +30°C° 0 mm 6 mps 678 mmHg 36%
    15:00 +29°C° 0 mm 6 mps 678 mmHg 37%
    16:00 +29°C° 0 mm 6 mps 677 mmHg 39%
    17:00 +28°C° 0 mm 6 mps 677 mmHg 40%
    18:00 +27°C° 0 mm 6 mps 677 mmHg 43%
    19:00 +26°C° 0 mm 5 mps 677 mmHg 47%
    20:00 +23°C° 0 mm 5 mps 678 mmHg 50%
    21:00 +23°C° 0 mm 5 mps 678 mmHg 53%
    22:00 +22°C° 0 mm 5 mps 678 mmHg 55%
    23:00 +22°C° 0 mm 5 mps 678 mmHg 58%
    Show more